This is the latest recevied weather packets stored in our database for station/object IU2DXM. If no packets are shown the sender has not sent any weather packets the latest 10 day(s).
| Time | Temp. | Humidity | Pressure | Rain* | Wind** | Luminosity | Snow |
|---|---|---|---|---|---|---|---|
| 1777568416 | 18.89° C | - | - | 0 mm | - | 178 W/m² | - |
| 1777562416 | 19.44° C | - | - | 0 mm | - | 465 W/m² | - |
| 1777561216 | 20° C | - | - | 0 mm | - | 523 W/m² | - |
| 1777560639 | 20° C | - | - | 0 mm | - | 540 W/m² | - |
| 1777559418 | 19.44° C | - | - | 0 mm | - | 596 W/m² | - |
| 1777554617 | 19.44° C | - | - | 0 mm | - | 748 W/m² | - |
| 1777554018 | 18.89° C | - | - | 0 mm | - | 769 W/m² | - |
| 1777552818 | 18.89° C | - | - | 0 mm | - | 782 W/m² | - |
| 1777550457 | 18.33° C | - | - | 0 mm | - | 799 W/m² | - |
| 1777549217 | 18.33° C | - | - | 0 mm | - | 852 W/m² | - |
| 1777543817 | 16.67° C | - | - | 0 mm | - | 775 W/m² | - |
| 1777543217 | 16.67° C | - | - | 0 mm | - | 758 W/m² | - |
| 1777542619 | 16.11° C | - | - | 0 mm | - | 758 W/m² | - |
| 1777539617 | 15.56° C | - | - | 0 mm | - | 681 W/m² | - |
| 1777539017 | 15.56° C | - | - | 0 mm | - | 650 W/m² | - |
| 1777538417 | 15.56° C | - | - | 0 mm | - | 634 W/m² | - |
| 1777535437 | 14.44° C | - | - | 0 mm | - | 499 W/m² | - |
| 1777522216 | 12.22° C | - | - | 0 mm | - | 0 W/m² | - |
| 1777515616 | 12.22° C | - | - | 0 mm | - | 0 W/m² | - |
| 1777513816 | 12.78° C | - | - | 0 mm | - | 0 W/m² | - |
| 1777496417 | 17.78° C | - | - | 0 mm | - | 0 W/m² | - |
| 1777492237 | 17.78° C | - | - | 0 mm | - | 0 W/m² | - |
| 1777485016 | 20° C | - | - | 0 mm | - | 30 W/m² | - |
| 1777481416 | 20.56° C | - | - | 0 mm | - | 126 W/m² | - |
| 1777477216 | 23.33° C | - | - | 0 mm | - | 213 W/m² | - |
* Rain latest hour (hover to see other rain measurements)
** Current wind speed in m/s (hover to see current wind gust speed)